Location: Proctor
(47.8934°N, 114.3048°W)
Time: 09:53:31
(UTC+00:00)

Transit 4A - Pass Details

Date: 03 July 2024
Orbit: 870 x 973 km, 66.8° (Epoch: 13 July)

Event Time Altitude Azimuth Distance (km) Brightness Sun altitude
Rises 08:23:49 0° 315° (NW) 3,474 11.4 -18.6°
Reaches altitude 10° 08:28:04 10° 344° (NNW) 2,548 11.1 -18.4°
Maximum altitude 08:30:28 12° 9° (N) 2,385 11.2 -18.4°
Drops below altitude 10° 08:32:52 10° 33° (NNE) 2,569 11.3 -18.3°
Sets 08:37:12 0° 62° (ENE) 3,532 11.6 -18.1°
